Time,TemperatureF,DewpointF,PressureIn,WindDirection,WindDirectionDegrees,WindSpeedMPH,WindSpeedGustMPH,Humidity,HourlyPrecipIn,Conditions,Clouds,dailyrainin,SoftwareType,DateUTC
2013-10-01 00:00:00,81.9,71.9,30.01,SE,135,2.2,4.1,72,0.00,,---,0.00,VWS V13.01,2013-10-01 04:00:00,
2013-10-01 00:01:00,82.0,72.1,30.01,East,100,3.9,7.3,72,0.00,,---,0.00,VWS V13.01,2013-10-01 04:01:00,
2013-10-01 00:02:00,82.0,72.1,30.01,ESE,115,1.1,1.5,72,0.00,,---,0.00,VWS V13.01,2013-10-01 04:02:00,
2013-10-01 00:03:00,81.9,72.0,30.01,SE,134,4.3,6.9,72,0.00,,---,0.00,VWS V13.01,2013-10-01 04:03:00,
2013-10-01 00:08:00,81.7,71.9,30.01,ESE,118,1.0,7.1,72,0.00,,---,0.00,VWS V13.01,2013-10-01 04:08:00,
2013-10-01 00:10:00,81.7,72.1,30.01,ESE,118,3.2,8.5,73,0.00,,---,0.00,VWS V13.01,2013-10-01 04:10:00,
2013-10-01 00:15:00,81.7,71.8,30.01,SE,132,3.5,4.2,72,0.00,,---,0.00,VWS V13.01,2013-10-01 04:15:00,
2013-10-01 00:20:00,81.9,71.9,30.01,SE,138,2.1,2.6,72,0.00,,---,0.00,VWS V13.01,2013-10-01 04:20:00,
2013-10-01 00:25:00,81.8,71.9,30.01,SE,125,1.6,4.0,72,0.00,,---,0.00,VWS V13.01,2013-10-01 04:25:00,
2013-10-01 00:30:00,81.5,71.7,30.01,SE,138,0.0,0.0,72,0.00,,---,0.00,VWS V13.01,2013-10-01 04:30:00,
2013-10-01 00:35:00,81.7,71.8,30.01,ESE,107,6.7,7.0,72,0.00,,---,0.00,VWS V13.01,2013-10-01 04:35:00,
2013-10-01 00:40:00,81.7,71.8,30.00,SE,132,4.5,8.3,72,0.00,,---,0.00,VWS V13.01,2013-10-01 04:40:00,
2013-10-01 00:45:00,81.6,71.7,30.01,SE,136,1.9,3.7,72,0.00,,---,0.00,VWS V13.01,2013-10-01 04:45:00,
2013-10-01 00:51:00,81.8,71.8,30.01,ESE,114,3.0,4.7,72,0.00,,---,0.00,VWS V13.01,2013-10-01 04:51:00,
2013-10-01 00:56:00,81.6,71.7,30.01,WSW,257,0.7,6.1,72,0.00,,---,0.00,VWS V13.01,2013-10-01 04:56:00,
2013-10-01 01:01:00,81.8,72.1,30.01,SE,131,1.1,2.4,72,0.00,,---,0.00,VWS V13.01,2013-10-01 05:01:00,
2013-10-01 01:06:00,81.8,72.0,30.01,ESE,115,3.1,8.0,72,0.00,,---,0.00,VWS V13.01,2013-10-01 05:06:00,
2013-10-01 01:11:00,81.7,72.0,30.01,SW,221,1.7,5.7,72,0.00,,---,0.00,VWS V13.01,2013-10-01 05:11:00,
2013-10-01 01:16:00,81.9,72.2,30.01,SSE,153,1.4,4.0,73,0.00,,---,0.00,VWS V13.01,2013-10-01 05:16:00,
2013-10-01 01:21:00,81.8,72.0,30.01,SE,135,3.6,8.3,72,0.00,,---,0.00,VWS V13.01,2013-10-01 05:21:00,
2013-10-01 01:26:00,81.8,71.9,30.01,SE,129,3.6,7.3,72,0.00,,---,0.00,VWS V13.01,2013-10-01 05:26:00,
2013-10-01 01:31:00,81.7,71.7,30.00,ESE,103,1.9,4.0,72,0.00,,---,0.00,VWS V13.01,2013-10-01 05:31:00,
2013-10-01 01:36:00,81.9,71.9,30.01,SE,138,3.0,4.0,72,0.00,,---,0.00,VWS V13.01,2013-10-01 05:36:00,
2013-10-01 01:41:00,81.6,71.6,30.00,SE,128,4.5,4.5,72,0.00,,---,0.00,VWS V13.01,2013-10-01 05:41:00,
2013-10-01 01:46:00,81.3,71.3,30.00,East,87,2.8,2.8,72,0.00,,---,0.00,VWS V13.01,2013-10-01 05:46:00,
2013-10-01 01:51:00,81.5,71.5,30.00,SE,146,2.9,3.3,72,0.00,,---,0.00,VWS V13.01,2013-10-01 05:51:00,
2013-10-01 01:56:00,81.5,71.3,30.00,ESE,115,1.3,1.8,71,0.00,,---,0.00,VWS V13.01,2013-10-01 05:56:00,
2013-10-01 02:01:00,81.5,71.2,30.00,ESE,103,0.0,0.0,71,0.00,,---,0.00,VWS V13.01,2013-10-01 06:01:00,
2013-10-01 02:07:00,81.3,71.0,30.00,ESE,103,0.0,0.0,71,0.00,,---,0.00,VWS V13.01,2013-10-01 06:07:00,
2013-10-01 02:12:00,81.2,71.0,30.00,ESE,103,0.0,0.0,71,0.00,,---,0.00,VWS V13.01,2013-10-01 06:12:00,
2013-10-01 02:17:00,81.1,70.8,30.00,ESE,103,0.0,0.0,71,0.00,,---,0.00,VWS V13.01,2013-10-01 06:17:00,
2013-10-01 02:22:00,81.1,70.6,30.00,ESE,103,0.0,0.0,70,0.00,,---,0.00,VWS V13.01,2013-10-01 06:22:00,
2013-10-01 02:27:00,81.3,70.6,30.00,ESE,103,0.0,0.0,70,0.00,,---,0.00,VWS V13.01,2013-10-01 06:27:00,
2013-10-01 02:32:00,81.1,70.3,30.00,ESE,103,0.0,0.0,70,0.00,,---,0.00,VWS V13.01,2013-10-01 06:32:00,
2013-10-01 02:37:00,81.2,69.9,30.00,ESE,103,0.0,0.0,69,0.00,,---,0.00,VWS V13.01,2013-10-01 06:37:00,
2013-10-01 02:42:00,81.4,70.1,29.99,ESE,103,0.0,0.0,69,0.00,,---,0.00,VWS V13.01,2013-10-01 06:42:00,
2013-10-01 02:47:00,81.2,70.0,29.99,ESE,103,0.0,0.0,69,0.00,,---,0.00,VWS V13.01,2013-10-01 06:47:00,
2013-10-01 02:52:00,81.1,70.0,29.99,ESE,103,0.0,0.0,69,0.00,,---,0.00,VWS V13.01,2013-10-01 06:52:00,
2013-10-01 02:57:00,80.9,69.9,30.00,ESE,103,0.0,0.0,69,0.00,,---,0.00,VWS V13.01,2013-10-01 06:57:00,
2013-10-01 03:02:00,80.8,69.9,30.00,ESE,103,0.0,0.0,70,0.00,,---,0.00,VWS V13.01,2013-10-01 07:02:00,
2013-10-01 03:07:00,80.6,69.9,30.00,ESE,103,0.0,0.0,70,0.00,,---,0.00,VWS V13.01,2013-10-01 07:07:00,
2013-10-01 03:12:00,80.4,69.7,29.99,ESE,103,0.0,0.0,70,0.00,,---,0.00,VWS V13.01,2013-10-01 07:12:00,
2013-10-01 03:17:00,80.4,69.7,29.99,ESE,103,0.0,0.0,70,0.00,,---,0.00,VWS V13.01,2013-10-01 07:17:00,
2013-10-01 03:23:00,80.5,70.1,29.99,ESE,103,0.0,0.0,71,0.00,,---,0.00,VWS V13.01,2013-10-01 07:23:00,
2013-10-01 03:28:00,80.4,70.1,29.99,ESE,103,0.0,0.0,71,0.00,,---,0.00,VWS V13.01,2013-10-01 07:28:00,
2013-10-01 03:33:00,80.4,70.3,29.99,ESE,103,0.0,0.0,71,0.00,,---,0.00,VWS V13.01,2013-10-01 07:33:00,
2013-10-01 03:38:00,80.3,70.2,29.99,ESE,103,0.0,0.0,71,0.00,,---,0.00,VWS V13.01,2013-10-01 07:38:00,
2013-10-01 03:43:00,80.3,70.3,29.98,ESE,103,0.0,0.0,72,0.00,,---,0.00,VWS V13.01,2013-10-01 07:43:00,
2013-10-01 03:48:00,80.4,70.6,29.98,ESE,103,0.0,0.0,72,0.00,,---,0.00,VWS V13.01,2013-10-01 07:48:00,
2013-10-01 03:54:00,80.3,70.6,29.99,ESE,103,0.0,0.0,72,0.00,,---,0.00,VWS V13.01,2013-10-01 07:54:00,
2013-10-01 03:59:00,80.3,70.6,29.99,ESE,103,0.0,0.0,72,0.00,,---,0.00,VWS V13.01,2013-10-01 07:59:00,
2013-10-01 04:04:00,80.2,70.7,29.98,ESE,103,0.0,0.0,73,0.00,,---,0.00,VWS V13.01,2013-10-01 08:04:00,
2013-10-01 04:09:00,80.2,70.8,29.99,ESE,103,0.0,0.0,73,0.00,,---,0.00,VWS V13.01,2013-10-01 08:09:00,
2013-10-01 04:15:00,80.2,70.8,29.98,ESE,103,0.0,0.0,73,0.00,,---,0.00,VWS V13.01,2013-10-01 08:15:00,
2013-10-01 04:20:00,80.2,70.7,29.99,ESE,103,0.0,0.0,73,0.00,,---,0.00,VWS V13.01,2013-10-01 08:20:00,
2013-10-01 04:25:00,80.2,70.7,29.98,ESE,103,0.0,0.0,73,0.00,,---,0.00,VWS V13.01,2013-10-01 08:25:00,
2013-10-01 04:30:00,80.2,70.7,29.99,ESE,103,0.0,0.0,73,0.00,,---,0.00,VWS V13.01,2013-10-01 08:30:00,
2013-10-01 04:35:00,80.3,70.8,29.98,ESE,103,0.0,0.0,73,0.00,,---,0.00,VWS V13.01,2013-10-01 08:35:00,
2013-10-01 04:40:00,80.2,70.7,29.99,ESE,103,0.0,0.0,73,0.00,,---,0.00,VWS V13.01,2013-10-01 08:40:00,
2013-10-01 04:46:00,80.2,70.7,29.99,ESE,103,0.0,0.0,73,0.00,,---,0.00,VWS V13.01,2013-10-01 08:46:00,
2013-10-01 04:51:00,80.1,70.8,29.99,ESE,103,0.0,0.0,73,0.00,,---,0.00,VWS V13.01,2013-10-01 08:51:00,
2013-10-01 04:56:00,80.0,70.9,29.99,ESE,103,0.0,0.0,74,0.00,,---,0.00,VWS V13.01,2013-10-01 08:56:00,
2013-10-01 05:01:00,80.0,70.9,29.99,ESE,103,0.0,0.0,74,0.00,,---,0.00,VWS V13.01,2013-10-01 09:01:00,
2013-10-01 05:06:00,80.0,71.1,29.99,ESE,103,0.0,0.0,74,0.00,,---,0.00,VWS V13.01,2013-10-01 09:06:00,
2013-10-01 05:11:00,79.8,71.1,29.99,ESE,103,0.0,0.0,75,0.00,,---,0.00,VWS V13.01,2013-10-01 09:11:00,
2013-10-01 05:16:00,79.9,71.5,29.99,ESE,103,0.0,0.0,76,0.00,,---,0.00,VWS V13.01,2013-10-01 09:16:00,
2013-10-01 05:22:00,79.8,71.6,29.99,ESE,103,0.0,0.0,76,0.00,,---,0.00,VWS V13.01,2013-10-01 09:22:00,
2013-10-01 05:27:00,79.7,72.3,29.99,ESE,103,0.0,0.0,78,0.00,,---,0.00,VWS V13.01,2013-10-01 09:27:00,
2013-10-01 05:32:00,80.0,72.6,30.00,ESE,103,0.0,0.0,78,0.00,,---,0.00,VWS V13.01,2013-10-01 09:32:00,
2013-10-01 05:37:00,79.9,72.5,30.00,ESE,103,0.0,0.0,78,0.00,,---,0.00,VWS V13.01,2013-10-01 09:37:00,
2013-10-01 05:42:00,80.0,72.8,30.00,ESE,103,0.0,0.0,79,0.00,,---,0.00,VWS V13.01,2013-10-01 09:42:00,
2013-10-01 05:47:00,80.0,72.9,30.00,ESE,103,0.0,0.0,79,0.00,,---,0.00,VWS V13.01,2013-10-01 09:47:00,
2013-10-01 05:53:00,80.2,73.1,30.00,ESE,103,0.0,0.0,79,0.00,,---,0.00,VWS V13.01,2013-10-01 09:53:00,
2013-10-01 05:58:00,80.3,73.3,30.00,ESE,103,0.0,0.0,79,0.00,,---,0.00,VWS V13.01,2013-10-01 09:58:00,
2013-10-01 06:03:00,80.4,73.4,30.00,ESE,103,0.0,0.0,79,0.00,,---,0.00,VWS V13.01,2013-10-01 10:03:00,
2013-10-01 06:08:00,80.4,73.3,30.00,ESE,103,0.0,0.0,79,0.00,,---,0.00,VWS V13.01,2013-10-01 10:08:00,
2013-10-01 06:13:00,80.4,73.3,30.00,ESE,103,0.0,0.0,79,0.00,,---,0.00,VWS V13.01,2013-10-01 10:13:00,
2013-10-01 06:18:00,80.4,73.3,30.00,ESE,103,0.0,0.0,79,0.00,,---,0.00,VWS V13.01,2013-10-01 10:18:00,
2013-10-01 06:23:00,80.5,73.3,30.00,ESE,103,0.0,0.0,79,0.00,,---,0.00,VWS V13.01,2013-10-01 10:23:00,
2013-10-01 06:28:00,80.4,73.1,30.00,ESE,103,0.0,0.0,78,0.00,,---,0.00,VWS V13.01,2013-10-01 10:28:00,
2013-10-01 06:33:00,80.4,72.8,30.01,ESE,103,0.0,0.0,78,0.00,,---,0.00,VWS V13.01,2013-10-01 10:33:00,
2013-10-01 06:38:00,80.5,72.6,30.01,ESE,103,0.0,0.0,77,0.00,,---,0.00,VWS V13.01,2013-10-01 10:38:00,
2013-10-01 06:44:00,80.7,72.8,30.01,ESE,103,0.0,0.0,77,0.00,,---,0.00,VWS V13.01,2013-10-01 10:44:00,
2013-10-01 06:49:00,80.5,72.7,30.01,ESE,103,0.0,0.0,77,0.00,,---,0.00,VWS V13.01,2013-10-01 10:49:00,
2013-10-01 06:54:00,80.6,72.7,30.01,ESE,103,0.0,0.0,77,0.00,,---,0.00,VWS V13.01,2013-10-01 10:54:00,
2013-10-01 06:59:00,80.5,72.8,30.01,ESE,103,0.0,0.0,77,0.00,,---,0.00,VWS V13.01,2013-10-01 10:59:00,
2013-10-01 07:04:00,80.5,72.8,30.01,ESE,103,0.0,0.0,78,0.00,,---,0.00,VWS V13.01,2013-10-01 11:04:00,
2013-10-01 07:10:00,80.3,72.8,30.01,ESE,103,0.0,0.0,78,0.00,,---,0.00,VWS V13.01,2013-10-01 11:10:00,
2013-10-01 07:15:00,80.5,73.1,30.01,ESE,103,0.0,0.0,78,0.00,,---,0.00,VWS V13.01,2013-10-01 11:15:00,
2013-10-01 07:20:00,80.4,73.0,30.01,ESE,103,0.0,0.0,78,0.00,,---,0.00,VWS V13.01,2013-10-01 11:20:00,
2013-10-01 07:25:00,80.1,72.8,30.01,ESE,103,0.0,0.0,78,0.00,,---,0.00,VWS V13.01,2013-10-01 11:25:00,
2013-10-01 07:30:00,80.1,72.8,30.01,ESE,103,0.0,0.0,78,0.00,,---,0.00,VWS V13.01,2013-10-01 11:30:00,
2013-10-01 07:36:00,80.1,73.0,30.01,ESE,103,0.0,0.0,79,0.00,,---,0.00,VWS V13.01,2013-10-01 11:36:00,
2013-10-01 07:41:00,80.1,73.2,30.02,ESE,103,0.0,0.0,79,0.00,,---,0.00,VWS V13.01,2013-10-01 11:41:00,
2013-10-01 07:46:00,80.1,73.1,30.02,ESE,103,0.0,0.0,79,0.00,,---,0.00,VWS V13.01,2013-10-01 11:46:00,
2013-10-01 07:51:00,80.5,73.4,30.02,ESE,103,0.0,0.0,79,0.00,,---,0.00,VWS V13.01,2013-10-01 11:51:00,
2013-10-01 07:56:00,80.6,73.2,30.02,ESE,103,0.0,0.0,78,0.00,,---,0.00,VWS V13.01,2013-10-01 11:56:00,
2013-10-01 08:01:00,81.4,73.5,30.02,ESE,103,0.0,0.0,77,0.00,,---,0.00,VWS V13.01,2013-10-01 12:01:00,
2013-10-01 08:06:00,81.9,73.5,30.02,ESE,103,0.0,0.0,76,0.00,,---,0.00,VWS V13.01,2013-10-01 12:06:00,
2013-10-01 08:12:00,82.2,73.2,30.02,ESE,103,0.0,0.0,74,0.00,,---,0.00,VWS V13.01,2013-10-01 12:12:00,
2013-10-01 08:17:00,82.5,73.3,30.02,ESE,103,0.0,0.0,74,0.00,,---,0.00,VWS V13.01,2013-10-01 12:17:00,
2013-10-01 08:22:00,83.0,73.4,30.02,ESE,103,0.0,0.0,73,0.00,,---,0.00,VWS V13.01,2013-10-01 12:22:00,
2013-10-01 08:27:00,83.1,73.4,30.02,ESE,103,0.0,0.0,73,0.00,,---,0.00,VWS V13.01,2013-10-01 12:27:00,
2013-10-01 08:32:00,83.4,73.9,30.03,ESE,103,0.0,0.0,73,0.00,,---,0.00,VWS V13.01,2013-10-01 12:32:00,
2013-10-01 08:37:00,83.2,73.5,30.03,ESE,103,0.0,0.0,73,0.00,,---,0.00,VWS V13.01,2013-10-01 12:37:00,
2013-10-01 08:42:00,83.4,73.3,30.03,ESE,103,0.0,0.0,72,0.00,,---,0.00,VWS V13.01,2013-10-01 12:42:00,
2013-10-01 08:48:00,83.9,73.5,30.03,ESE,103,0.0,0.0,71,0.00,,---,0.00,VWS V13.01,2013-10-01 12:48:00,
2013-10-01 08:53:00,83.8,73.3,30.03,ESE,103,0.0,0.0,71,0.00,,---,0.00,VWS V13.01,2013-10-01 12:53:00,
2013-10-01 08:58:00,83.9,73.0,30.03,ESE,103,0.0,0.0,70,0.00,,---,0.00,VWS V13.01,2013-10-01 12:58:00,
2013-10-01 09:03:00,84.1,73.1,30.04,ESE,103,0.0,0.0,70,0.00,,---,0.00,VWS V13.01,2013-10-01 13:03:00,
2013-10-01 09:08:00,83.9,72.8,30.04,ESE,103,0.0,0.0,69,0.00,,---,0.00,VWS V13.01,2013-10-01 13:08:00,
2013-10-01 09:13:00,84.0,73.1,30.04,ESE,103,0.0,0.0,70,0.00,,---,0.00,VWS V13.01,2013-10-01 13:13:00,
2013-10-01 09:19:00,84.3,73.1,30.04,ESE,103,0.0,0.0,69,0.00,,---,0.00,VWS V13.01,2013-10-01 13:19:00,
2013-10-01 09:24:00,84.6,72.8,30.04,ESE,103,0.0,0.0,68,0.00,,---,0.00,VWS V13.01,2013-10-01 13:24:00,
2013-10-01 09:29:00,84.6,72.9,30.04,ESE,103,0.0,0.0,68,0.00,,---,0.00,VWS V13.01,2013-10-01 13:29:00,
2013-10-01 09:34:00,84.9,73.1,30.04,ESE,103,0.0,0.0,68,0.00,,---,0.00,VWS V13.01,2013-10-01 13:34:00,
2013-10-01 09:40:00,85.1,73.1,30.04,ESE,103,0.0,0.0,67,0.00,,---,0.00,VWS V13.01,2013-10-01 13:40:00,
2013-10-01 09:45:00,85.1,72.9,30.04,ESE,103,0.0,0.0,67,0.00,,---,0.00,VWS V13.01,2013-10-01 13:45:00,
2013-10-01 09:50:00,85.2,73.1,30.04,ESE,103,0.0,0.0,67,0.00,,---,0.00,VWS V13.01,2013-10-01 13:50:00,
2013-10-01 09:56:00,85.0,72.6,30.04,ESE,103,0.0,0.0,66,0.00,,---,0.00,VWS V13.01,2013-10-01 13:56:00,
2013-10-01 10:01:00,85.3,73.0,30.04,ESE,103,0.0,0.0,67,0.00,,---,0.00,VWS V13.01,2013-10-01 14:01:00,
2013-10-01 10:06:00,85.5,73.3,30.04,ESE,103,0.0,0.0,67,0.00,,---,0.00,VWS V13.01,2013-10-01 14:06:00,
2013-10-01 10:11:00,85.4,73.1,30.04,ESE,103,0.0,0.0,67,0.00,,---,0.00,VWS V13.01,2013-10-01 14:11:00,
2013-10-01 10:17:00,85.7,73.1,30.04,ESE,103,0.0,0.0,66,0.00,,---,0.00,VWS V13.01,2013-10-01 14:17:00,
2013-10-01 10:22:00,86.0,72.5,30.04,ESE,103,0.0,0.0,64,0.00,,---,0.00,VWS V13.01,2013-10-01 14:22:00,
2013-10-01 10:27:00,86.2,72.8,30.04,ESE,103,0.0,0.0,64,0.00,,---,0.00,VWS V13.01,2013-10-01 14:27:00,
2013-10-01 10:32:00,86.2,72.8,30.04,ESE,103,0.0,0.0,64,0.00,,---,0.00,VWS V13.01,2013-10-01 14:32:00,
2013-10-01 10:37:00,85.9,72.4,30.04,ESE,114,8.0,8.2,64,0.00,,---,0.00,VWS V13.01,2013-10-01 14:37:00,
2013-10-01 10:43:00,85.9,72.1,30.03,SE,125,3.8,10.3,64,0.00,,---,0.00,VWS V13.01,2013-10-01 14:43:00,
2013-10-01 10:48:00,85.8,72.6,30.03,ESE,122,3.4,6.6,65,0.00,,---,0.00,VWS V13.01,2013-10-01 14:48:00,
2013-10-01 10:53:00,86.0,72.6,30.03,SE,127,3.5,5.0,64,0.00,,---,0.00,VWS V13.01,2013-10-01 14:53:00,
2013-10-01 10:58:00,85.9,72.0,30.03,ESE,120,9.3,9.6,63,0.00,,---,0.00,VWS V13.01,2013-10-01 14:58:00,
2013-10-01 11:03:00,85.7,71.9,30.03,East,100,7.4,8.2,64,0.00,,---,0.00,VWS V13.01,2013-10-01 15:03:00,
2013-10-01 11:08:00,85.8,72.6,30.03,East,94,4.9,12.7,65,0.00,,---,0.00,VWS V13.01,2013-10-01 15:08:00,
2013-10-01 11:13:00,85.8,72.3,30.03,SE,129,4.2,10.4,64,0.00,,---,0.00,VWS V13.01,2013-10-01 15:13:00,
2013-10-01 11:18:00,85.8,72.3,30.04,East,97,3.3,4.8,64,0.00,,---,0.00,VWS V13.01,2013-10-01 15:18:00,
2013-10-01 11:23:00,85.7,71.8,30.04,SE,142,7.9,13.9,63,0.00,,---,0.00,VWS V13.01,2013-10-01 15:23:00,
2013-10-01 11:28:00,85.8,72.6,30.04,ESE,112,3.3,3.4,65,0.00,,---,0.00,VWS V13.01,2013-10-01 15:28:00,
2013-10-01 11:33:00,86.3,72.7,30.04,East,91,3.7,8.5,64,0.00,,---,0.00,VWS V13.01,2013-10-01 15:33:00,
2013-10-01 11:39:00,86.0,72.3,30.04,NE,41,7.0,7.0,64,0.00,,---,0.00,VWS V13.01,2013-10-01 15:39:00,
2013-10-01 11:44:00,85.4,72.6,30.04,ESE,121,5.7,12.2,66,0.00,,---,0.00,VWS V13.01,2013-10-01 15:44:00,
2013-10-01 11:50:00,85.5,72.4,30.04,SE,128,6.5,11.7,65,0.00,,---,0.00,VWS V13.01,2013-10-01 15:50:00,
2013-10-01 11:55:00,85.5,72.6,30.04,SE,127,6.1,9.8,66,0.00,,---,0.00,VWS V13.01,2013-10-01 15:55:00,
2013-10-01 12:00:00,85.5,72.3,30.04,ESE,104,9.6,13.8,65,0.00,,---,0.00,VWS V13.01,2013-10-01 16:00:00,
2013-10-01 12:05:00,85.6,71.8,30.04,ESE,103,5.8,12.6,64,0.00,,---,0.00,VWS V13.01,2013-10-01 16:05:00,
2013-10-01 12:10:00,86.0,72.1,30.03,East,93,4.2,9.3,63,0.00,,---,0.00,VWS V13.01,2013-10-01 16:10:00,
2013-10-01 12:16:00,86.4,73.0,30.04,NE,49,2.9,9.7,64,0.00,,---,0.00,VWS V13.01,2013-10-01 16:16:00,
2013-10-01 12:21:00,86.3,72.7,30.03,East,97,3.6,12.9,64,0.00,,---,0.00,VWS V13.01,2013-10-01 16:21:00,
2013-10-01 12:26:00,86.3,71.5,30.04,SE,125,10.9,10.9,62,0.00,,---,0.00,VWS V13.01,2013-10-01 16:26:00,
2013-10-01 12:32:00,86.4,73.2,30.03,East,90,4.3,12.4,65,0.00,,---,0.00,VWS V13.01,2013-10-01 16:32:00,
2013-10-01 12:37:00,86.1,72.5,30.03,SE,134,10.7,14.4,64,0.00,,---,0.00,VWS V13.01,2013-10-01 16:37:00,
2013-10-01 12:42:00,86.2,72.9,30.03,ESE,111,7.3,10.5,65,0.00,,---,0.00,VWS V13.01,2013-10-01 16:42:00,
2013-10-01 12:48:00,85.9,73.5,30.03,East,86,3.4,11.1,67,0.00,,---,0.00,VWS V13.01,2013-10-01 16:48:00,
2013-10-01 12:53:00,85.8,73.2,30.03,SE,132,7.7,8.9,66,0.00,,---,0.00,VWS V13.01,2013-10-01 16:53:00,
2013-10-01 12:58:00,86.1,73.3,30.03,SE,129,6.2,11.8,66,0.00,,---,0.00,VWS V13.01,2013-10-01 16:58:00,
2013-10-01 13:03:00,86.0,73.2,30.03,NE,37,3.7,8.4,66,0.00,,---,0.00,VWS V13.01,2013-10-01 17:03:00,
2013-10-01 13:09:00,85.4,72.8,30.03,ESE,121,4.2,11.4,66,0.00,,---,0.00,VWS V13.01,2013-10-01 17:09:00,
2013-10-01 13:14:00,85.8,73.1,30.02,SE,127,13.7,13.7,66,0.00,,---,0.00,VWS V13.01,2013-10-01 17:14:00,
2013-10-01 13:19:00,85.9,73.7,30.02,SE,124,5.5,8.1,67,0.00,,---,0.00,VWS V13.01,2013-10-01 17:19:00,
2013-10-01 13:25:00,85.8,73.1,30.02,SE,125,10.9,10.9,66,0.00,,---,0.00,VWS V13.01,2013-10-01 17:25:00,
2013-10-01 13:30:00,86.3,73.3,30.02,ESE,107,5.4,11.1,65,0.00,,---,0.00,VWS V13.01,2013-10-01 17:30:00,
2013-10-01 13:35:00,86.5,73.1,30.02,SE,145,6.6,8.3,64,0.00,,---,0.00,VWS V13.01,2013-10-01 17:35:00,
2013-10-01 13:40:00,86.4,73.2,30.01,ESE,122,8.9,10.4,65,0.00,,---,0.00,VWS V13.01,2013-10-01 17:40:00,
2013-10-01 13:45:00,86.5,72.8,30.01,ESE,110,4.3,8.1,64,0.00,,---,0.00,VWS V13.01,2013-10-01 17:45:00,
2013-10-01 13:50:00,86.1,72.4,30.01,SE,127,10.6,10.8,64,0.00,,---,0.00,VWS V13.01,2013-10-01 17:50:00,
2013-10-01 13:55:00,85.8,73.0,30.01,SE,128,8.7,11.1,66,0.00,,---,0.00,VWS V13.01,2013-10-01 17:55:00,
2013-10-01 14:00:00,86.2,72.4,30.01,East,87,9.2,10.9,64,0.00,,---,0.00,VWS V13.01,2013-10-01 18:00:00,
2013-10-01 14:06:00,86.3,73.1,30.00,ESE,107,3.9,9.1,65,0.00,,---,0.00,VWS V13.01,2013-10-01 18:06:00,
2013-10-01 14:11:00,86.5,73.3,30.00,SE,128,9.9,9.9,65,0.00,,---,0.00,VWS V13.01,2013-10-01 18:11:00,
2013-10-01 14:16:00,86.3,73.2,30.00,East,82,7.5,11.1,65,0.00,,---,0.00,VWS V13.01,2013-10-01 18:16:00,
2013-10-01 14:21:00,86.5,72.5,30.00,East,87,6.3,16.5,63,0.00,,---,0.00,VWS V13.01,2013-10-01 18:21:00,
2013-10-01 14:26:00,86.1,72.8,30.00,ESE,120,6.3,10.1,65,0.00,,---,0.00,VWS V13.01,2013-10-01 18:26:00,
2013-10-01 14:31:00,86.1,72.7,30.00,East,79,8.2,12.5,64,0.00,,---,0.00,VWS V13.01,2013-10-01 18:31:00,
2013-10-01 14:36:00,85.5,71.6,30.00,East,101,9.6,11.1,63,0.00,,---,0.00,VWS V13.01,2013-10-01 18:36:00,
2013-10-01 14:41:00,85.5,72.5,30.00,ESE,117,9.9,9.9,65,0.00,,---,0.00,VWS V13.01,2013-10-01 18:41:00,
2013-10-01 14:46:00,85.5,72.6,30.00,ESE,105,7.3,12.1,65,0.00,,---,0.00,VWS V13.01,2013-10-01 18:46:00,
2013-10-01 14:51:00,85.6,72.0,29.99,ESE,114,7.8,10.6,64,0.00,,---,0.00,VWS V13.01,2013-10-01 18:51:00,
2013-10-01 14:56:00,85.8,72.1,29.99,SE,138,12.9,13.0,64,0.00,,---,0.00,VWS V13.01,2013-10-01 18:56:00,
2013-10-01 15:02:00,86.7,72.7,29.99,ESE,117,6.2,9.4,63,0.00,,---,0.00,VWS V13.01,2013-10-01 19:02:00,
2013-10-01 15:07:00,86.2,72.7,29.98,East,101,9.3,11.9,64,0.00,,---,0.00,VWS V13.01,2013-10-01 19:07:00,
2013-10-01 15:12:00,86.2,72.4,29.98,ESE,121,9.3,9.9,64,0.00,,---,0.00,VWS V13.01,2013-10-01 19:12:00,
2013-10-01 15:17:00,86.3,73.0,29.98,ESE,120,4.7,6.5,65,0.00,,---,0.00,VWS V13.01,2013-10-01 19:17:00,
2013-10-01 15:22:00,86.0,73.2,29.98,ESE,120,3.7,5.3,66,0.00,,---,0.00,VWS V13.01,2013-10-01 19:22:00,
2013-10-01 15:27:00,85.8,73.2,29.98,ESE,122,6.3,11.0,66,0.00,,---,0.00,VWS V13.01,2013-10-01 19:27:00,
2013-10-01 15:32:00,85.8,73.2,29.98,ESE,122,2.8,4.0,66,0.00,,---,0.00,VWS V13.01,2013-10-01 19:32:00,
2013-10-01 15:38:00,85.3,72.9,29.98,East,97,6.9,10.5,67,0.00,,---,0.00,VWS V13.01,2013-10-01 19:38:00,
2013-10-01 15:43:00,85.1,72.7,29.98,ESE,120,10.2,11.7,66,0.00,,---,0.00,VWS V13.01,2013-10-01 19:43:00,
2013-10-01 15:48:00,85.2,72.5,29.98,East,83,5.2,8.1,66,0.00,,---,0.00,VWS V13.01,2013-10-01 19:48:00,
2013-10-01 15:53:00,85.6,72.5,29.98,NNE,21,4.6,5.7,65,0.00,,---,0.00,VWS V13.01,2013-10-01 19:53:00,
2013-10-01 15:58:00,85.4,72.6,29.98,SE,135,7.5,13.2,66,0.00,,---,0.00,VWS V13.01,2013-10-01 19:58:00,
2013-10-01 16:03:00,85.0,71.9,29.98,ESE,112,10.3,11.6,65,0.00,,---,0.00,VWS V13.01,2013-10-01 20:03:00,
2013-10-01 16:09:00,85.0,71.7,29.97,South,174,5.3,12.2,65,0.00,,---,0.00,VWS V13.01,2013-10-01 20:09:00,
2013-10-01 16:15:00,85.4,72.6,29.97,ESE,104,3.4,13.5,66,0.00,,---,0.00,VWS V13.01,2013-10-01 20:15:00,
2013-10-01 16:20:00,85.6,73.2,29.97,ENE,58,5.8,12.3,67,0.00,,---,0.00,VWS V13.01,2013-10-01 20:20:00,
2013-10-01 16:25:00,85.3,73.0,29.97,SE,127,7.1,11.8,67,0.00,,---,0.00,VWS V13.01,2013-10-01 20:25:00,
2013-10-01 16:30:00,85.5,73.2,29.97,ESE,103,11.1,11.1,67,0.00,,---,0.00,VWS V13.01,2013-10-01 20:30:00,
2013-10-01 16:36:00,85.0,72.5,29.97,East,97,5.4,9.4,66,0.00,,---,0.00,VWS V13.01,2013-10-01 20:36:00,
2013-10-01 16:41:00,85.1,72.1,29.97,ESE,122,4.2,9.1,65,0.00,,---,0.00,VWS V13.01,2013-10-01 20:41:00,
2013-10-01 16:46:00,85.3,71.8,29.97,East,101,5.8,11.6,64,0.00,,---,0.00,VWS V13.01,2013-10-01 20:46:00,
2013-10-01 16:51:00,85.4,71.8,29.96,East,93,5.0,7.1,64,0.00,,---,0.00,VWS V13.01,2013-10-01 20:51:00,
2013-10-01 16:56:00,84.8,71.6,29.96,South,183,4.3,12.9,65,0.00,,---,0.00,VWS V13.01,2013-10-01 20:56:00,
2013-10-01 17:01:00,84.5,71.1,29.96,ESE,108,7.1,10.2,64,0.00,,---,0.00,VWS V13.01,2013-10-01 21:01:00,
2013-10-01 17:07:00,84.7,71.7,29.97,East,100,9.3,11.2,65,0.00,,---,0.00,VWS V13.01,2013-10-01 21:07:00,
2013-10-01 17:12:00,84.6,71.5,29.97,NE,53,7.2,12.0,65,0.00,,---,0.00,VWS V13.01,2013-10-01 21:12:00,
2013-10-01 17:17:00,84.7,71.9,29.97,ESE,120,4.4,9.4,66,0.00,,---,0.00,VWS V13.01,2013-10-01 21:17:00,
2013-10-01 17:22:00,84.6,71.6,29.97,ENE,62,7.0,9.7,65,0.00,,---,0.00,VWS V13.01,2013-10-01 21:22:00,
2013-10-01 17:27:00,84.5,71.6,29.97,ENE,76,6.3,11.8,65,0.00,,---,0.00,VWS V13.01,2013-10-01 21:27:00,
2013-10-01 17:32:00,84.5,71.4,29.97,SE,134,7.6,11.2,65,0.00,,---,0.00,VWS V13.01,2013-10-01 21:32:00,
2013-10-01 17:37:00,84.4,71.2,29.97,East,96,4.2,6.4,65,0.00,,---,0.00,VWS V13.01,2013-10-01 21:37:00,
2013-10-01 17:42:00,84.4,71.0,29.97,NE,55,3.7,8.8,64,0.00,,---,0.00,VWS V13.01,2013-10-01 21:42:00,
2013-10-01 17:47:00,84.2,71.3,29.97,East,90,4.7,8.8,65,0.00,,---,0.00,VWS V13.01,2013-10-01 21:47:00,
2013-10-01 17:52:00,84.2,71.4,29.97,ESE,114,2.9,4.1,66,0.00,,---,0.00,VWS V13.01,2013-10-01 21:52:00,
2013-10-01 17:57:00,83.9,71.1,29.97,ESE,112,6.8,13.0,66,0.00,,---,0.00,VWS V13.01,2013-10-01 21:57:00,
2013-10-01 18:02:00,83.8,71.5,29.97,East,91,6.7,9.6,67,0.00,,---,0.00,VWS V13.01,2013-10-01 22:02:00,
2013-10-01 18:07:00,83.6,71.7,29.98,ENE,66,5.0,9.9,68,0.00,,---,0.00,VWS V13.01,2013-10-01 22:07:00,
2013-10-01 18:12:00,83.5,71.8,29.98,ESE,110,6.5,8.7,68,0.00,,---,0.00,VWS V13.01,2013-10-01 22:12:00,
2013-10-01 18:17:00,83.4,71.9,29.98,ENE,73,6.1,12.4,68,0.00,,---,0.00,VWS V13.01,2013-10-01 22:17:00,
2013-10-01 18:22:00,83.4,72.1,29.98,East,94,8.1,8.1,69,0.00,,---,0.00,VWS V13.01,2013-10-01 22:22:00,
2013-10-01 18:27:00,83.4,72.1,29.98,ESE,121,3.9,4.0,69,0.00,,---,0.00,VWS V13.01,2013-10-01 22:27:00,
2013-10-01 18:32:00,82.8,71.7,29.98,East,93,7.5,8.9,69,0.00,,---,0.00,VWS V13.01,2013-10-01 22:32:00,
2013-10-01 18:37:00,82.6,71.7,29.98,ESE,121,5.2,10.6,70,0.00,,---,0.00,VWS V13.01,2013-10-01 22:37:00,
2013-10-01 18:43:00,82.4,71.8,29.98,ESE,110,7.0,10.9,70,0.00,,---,0.00,VWS V13.01,2013-10-01 22:43:00,
2013-10-01 18:48:00,82.6,71.8,29.98,SSE,153,6.7,9.8,70,0.00,,---,0.00,VWS V13.01,2013-10-01 22:48:00,
2013-10-01 18:53:00,82.5,71.8,29.99,ENE,70,2.3,9.6,70,0.00,,---,0.00,VWS V13.01,2013-10-01 22:53:00,
2013-10-01 18:58:00,82.3,72.0,29.99,SE,139,4.4,9.6,71,0.00,,---,0.00,VWS V13.01,2013-10-01 22:58:00,
2013-10-01 19:03:00,82.3,71.8,29.99,ESE,103,6.1,10.3,70,0.00,,---,0.00,VWS V13.01,2013-10-01 23:03:00,
2013-10-01 19:08:00,82.4,72.2,29.99,East,98,3.8,5.2,71,0.00,,---,0.00,VWS V13.01,2013-10-01 23:08:00,
2013-10-01 19:13:00,82.1,71.7,29.99,East,79,3.8,10.6,71,0.00,,---,0.00,VWS V13.01,2013-10-01 23:13:00,
2013-10-01 19:19:00,82.3,72.0,29.99,ESE,122,5.9,9.1,71,0.00,,---,0.00,VWS V13.01,2013-10-01 23:19:00,
2013-10-01 19:21:00,81.8,71.4,29.99,East,100,7.8,10.8,71,0.00,,---,0.00,VWS V13.01,2013-10-01 23:21:00,
2013-10-01 19:26:00,82.1,71.3,29.99,ESE,120,4.2,9.1,70,0.00,,---,0.00,VWS V13.01,2013-10-01 23:26:00,
2013-10-01 19:31:00,82.0,71.3,29.99,SE,129,7.7,9.5,70,0.00,,---,0.00,VWS V13.01,2013-10-01 23:31:00,
2013-10-01 19:36:00,82.1,71.6,29.99,SE,124,5.9,12.1,71,0.00,,---,0.00,VWS V13.01,2013-10-01 23:36:00,
2013-10-01 19:41:00,82.2,71.8,29.99,ESE,103,4.9,6.3,71,0.00,,---,0.00,VWS V13.01,2013-10-01 23:41:00,
2013-10-01 19:46:00,82.1,71.8,29.99,East,82,9.3,9.3,71,0.00,,---,0.00,VWS V13.01,2013-10-01 23:46:00,
2013-10-01 19:51:00,81.8,71.5,29.99,ESE,107,1.9,4.3,71,0.00,,---,0.00,VWS V13.01,2013-10-01 23:51:00,
2013-10-01 19:56:00,81.8,71.6,29.98,ESE,121,4.4,4.4,71,0.00,,---,0.00,VWS V13.01,2013-10-01 23:56:00,
2013-10-01 20:02:00,81.8,71.8,29.98,SE,128,5.3,9.2,72,0.00,,---,0.00,VWS V13.01,2013-10-02 00:02:00,
2013-10-01 20:07:00,82.0,72.1,29.98,SE,138,2.9,5.2,72,0.00,,---,0.00,VWS V13.01,2013-10-02 00:07:00,
2013-10-01 20:12:00,81.8,71.7,29.98,ENE,76,7.1,9.7,72,0.00,,---,0.00,VWS V13.01,2013-10-02 00:12:00,
2013-10-01 20:17:00,81.7,71.7,29.98,ESE,121,3.0,5.3,72,0.00,,---,0.00,VWS V13.01,2013-10-02 00:17:00,
2013-10-01 20:18:00,81.9,71.9,29.98,SE,139,3.1,7.5,72,0.00,,---,0.00,VWS V13.01,2013-10-02 00:18:00,
2013-10-01 20:23:00,81.7,71.8,29.98,SE,124,2.3,4.0,72,0.00,,---,0.00,VWS V13.01,2013-10-02 00:23:00,
2013-10-01 20:28:00,81.7,71.9,29.98,East,83,2.2,3.9,72,0.00,,---,0.00,VWS V13.01,2013-10-02 00:28:00,
2013-10-01 20:33:00,81.3,71.6,29.98,ESE,105,5.0,7.4,72,0.00,,---,0.00,VWS V13.01,2013-10-02 00:33:00,
2013-10-01 20:38:00,81.6,71.9,29.98,ESE,103,8.5,8.5,73,0.00,,---,0.00,VWS V13.01,2013-10-02 00:38:00,
2013-10-01 20:43:00,81.7,72.2,29.99,ESE,115,8.1,8.3,73,0.00,,---,0.00,VWS V13.01,2013-10-02 00:43:00,
2013-10-01 20:48:00,81.7,72.2,29.98,ENE,73,4.1,8.9,73,0.00,,---,0.00,VWS V13.01,2013-10-02 00:48:00,
2013-10-01 20:53:00,81.6,72.3,29.99,SE,125,4.3,8.6,74,0.00,,---,0.00,VWS V13.01,2013-10-02 00:53:00,
2013-10-01 20:58:00,81.7,72.3,29.99,SE,146,4.7,11.5,73,0.00,,---,0.00,VWS V13.01,2013-10-02 00:58:00,
2013-10-01 21:03:00,81.6,71.9,29.99,East,82,7.5,10.3,73,0.00,,---,0.00,VWS V13.01,2013-10-02 01:03:00,
2013-10-01 21:08:00,81.4,71.9,29.99,SE,145,2.7,9.7,73,0.00,,---,0.00,VWS V13.01,2013-10-02 01:08:00,
2013-10-01 21:13:00,81.6,72.1,30.00,SE,142,4.1,7.1,73,0.00,,---,0.00,VWS V13.01,2013-10-02 01:13:00,
2013-10-01 21:18:00,81.7,71.9,30.00,SE,138,6.9,8.7,72,0.00,,---,0.00,VWS V13.01,2013-10-02 01:18:00,
2013-10-01 21:23:00,81.6,71.9,30.00,SE,134,4.1,6.3,73,0.00,,---,0.00,VWS V13.01,2013-10-02 01:23:00,
2013-10-01 21:28:00,81.8,72.3,30.00,East,100,4.3,6.8,73,0.00,,---,0.00,VWS V13.01,2013-10-02 01:28:00,
2013-10-01 21:33:00,81.9,72.6,30.00,SE,127,8.1,8.1,74,0.00,,---,0.00,VWS V13.01,2013-10-02 01:33:00,
2013-10-01 21:38:00,81.7,72.5,30.01,ESE,118,8.1,11.5,74,0.00,,---,0.00,VWS V13.01,2013-10-02 01:38:00,
2013-10-01 21:43:00,81.7,72.4,30.01,SSE,158,4.3,9.5,74,0.00,,---,0.00,VWS V13.01,2013-10-02 01:43:00,
2013-10-01 21:48:00,81.7,72.5,30.01,East,101,7.6,7.6,74,0.00,,---,0.00,VWS V13.01,2013-10-02 01:48:00,
2013-10-01 21:53:00,81.7,72.7,30.02,SE,128,5.6,11.2,74,0.00,,---,0.00,VWS V13.01,2013-10-02 01:53:00,
2013-10-01 21:58:00,81.7,72.8,30.02,ESE,118,3.1,7.0,74,0.00,,---,0.00,VWS V13.01,2013-10-02 01:58:00,
2013-10-01 22:03:00,81.8,73.0,30.02,SE,131,2.5,5.7,75,0.00,,---,0.00,VWS V13.01,2013-10-02 02:03:00,
2013-10-01 22:08:00,81.6,72.6,30.02,ESE,120,6.8,10.6,74,0.00,,---,0.00,VWS V13.01,2013-10-02 02:08:00,
2013-10-01 22:13:00,81.6,72.2,30.02,ENE,77,3.9,9.4,73,0.00,,---,0.00,VWS V13.01,2013-10-02 02:13:00,
2013-10-01 22:18:00,81.6,72.4,30.02,ESE,114,6.7,9.8,74,0.00,,---,0.00,VWS V13.01,2013-10-02 02:18:00,
2013-10-01 22:23:00,81.7,72.4,30.02,SE,132,1.9,14.0,74,0.00,,---,0.00,VWS V13.01,2013-10-02 02:23:00,
2013-10-01 22:28:00,81.7,72.4,30.02,ESE,108,7.2,10.7,74,0.00,,---,0.00,VWS V13.01,2013-10-02 02:28:00,
2013-10-01 22:33:00,81.9,72.7,30.02,ESE,105,7.4,8.2,74,0.00,,---,0.00,VWS V13.01,2013-10-02 02:33:00,
2013-10-01 22:38:00,81.6,72.5,30.02,East,100,5.0,8.9,74,0.00,,---,0.00,VWS V13.01,2013-10-02 02:38:00,
2013-10-01 22:43:00,81.8,72.6,30.02,East,89,12.4,12.4,74,0.00,,---,0.00,VWS V13.01,2013-10-02 02:43:00,
2013-10-01 22:48:00,81.6,72.6,30.02,ESE,120,7.0,12.5,74,0.00,,---,0.00,VWS V13.01,2013-10-02 02:48:00,
2013-10-01 22:53:00,81.4,72.3,30.02,ESE,114,9.8,13.4,74,0.00,,---,0.00,VWS V13.01,2013-10-02 02:53:00,
2013-10-01 22:58:00,81.6,72.7,30.02,South,177,5.3,7.8,74,0.00,,---,0.00,VWS V13.01,2013-10-02 02:58:00,
2013-10-01 23:03:00,81.5,72.5,30.02,SE,143,2.5,8.3,74,0.00,,---,0.00,VWS V13.01,2013-10-02 03:03:00,
2013-10-01 23:08:00,81.5,72.4,30.02,SE,145,2.3,5.1,74,0.00,,---,0.00,VWS V13.01,2013-10-02 03:08:00,
2013-10-01 23:13:00,81.4,72.4,30.02,SE,125,2.7,7.0,74,0.00,,---,0.00,VWS V13.01,2013-10-02 03:13:00,
2013-10-01 23:18:00,81.5,72.6,30.02,ESE,117,2.5,8.4,74,0.00,,---,0.00,VWS V13.01,2013-10-02 03:18:00,
2013-10-01 23:23:00,81.4,72.5,30.01,SE,127,4.8,8.3,74,0.00,,---,0.00,VWS V13.01,2013-10-02 03:23:00,
2013-10-01 23:28:00,81.5,72.5,30.02,ESE,121,3.1,6.6,74,0.00,,---,0.00,VWS V13.01,2013-10-02 03:28:00,
2013-10-01 23:33:00,81.5,72.4,30.01,ENE,69,1.1,5.5,74,0.00,,---,0.00,VWS V13.01,2013-10-02 03:33:00,
2013-10-01 23:38:00,81.4,72.3,30.01,East,93,9.8,10.4,74,0.00,,---,0.00,VWS V13.01,2013-10-02 03:38:00,
2013-10-01 23:43:00,81.4,72.3,30.02,ESE,122,2.9,5.8,74,0.00,,---,0.00,VWS V13.01,2013-10-02 03:43:00,
2013-10-01 23:48:00,81.4,72.2,30.01,East,91,2.9,8.5,74,0.00,,---,0.00,VWS V13.01,2013-10-02 03:48:00,
2013-10-01 23:53:00,81.4,72.4,30.02,ESE,120,4.2,13.3,74,0.00,,---,0.00,VWS V13.01,2013-10-02 03:53:00,
2013-10-01 23:58:00,81.4,72.5,30.02,ESE,112,9.2,9.2,74,0.00,,---,0.00,VWS V13.01,2013-10-02 03:58:00,